Weather History for Fort Stockton, TX

Change the Weather History Date:

Friday, January 3, 2014

  Actual Average Record
Temperature  
Mean Temperature 50 °F -  
Max Temperature 66 °F 59 °F 84 °F (2004)
Min Temperature 34 °F 35 °F 24 °F (1999)
Degree Days  
Heating Degree Days 15    
Moisture  
Dew Point 26 °F    
Average Humidity 43    
Maximum Humidity 67    
Minimum Humidity 23    
Precipitation  
Precipitation 0.00 in - - ()
Sea Level Pressure  
Sea Level Pressure 30.05 in    
Wind  
Wind Speed 12 mph (South)    
Max Wind Speed 16 mph    
Max Gust Speed 22 mph    
Visibility 10 miles    
Events      
Averages and records for this station are not official NWS values.
T = Trace of Precipitation, MM = Missing Value Source: NWS Daily Summary

Daily Weather History Graph

Daily Weather History Graph

Search for Another Location

Airport:

Trip Planner

Search our weather history database for the weather conditions in past years. The results will help you decide how hot, cold, wet, or windy it might be!

Date:

Astronomy

Jan. 03, 2014 Rise Set
Actual Time 7:50 AM CST 6:02 PM CST
Civil Twilight 7:23 AM CST 6:29 PM CST
Nautical Twilight 6:53 AM CST 6:59 PM CST
Astronomical Twilight 6:24 AM CST 7:28 PM CST
Moon 9:29 AM CST (1/3) 9:00 PM CST (1/3)
Length of Visible Light 11h 05m
Length of Day
10h 12m
Waxing Crescent, 8% of the Moon is Illuminated
Jan 3
Waxing Crescent
Jan 7
First Quarter
Jan 15
Full
Jan 23
Last Quarter
Jan 30
New

Hourly Weather History & Observations

Time (CST) Temp. Windchill Dew Point Humidity Pressure Visibility Wind Dir Wind Speed Gust Speed Precip Events Conditions
12:53 AM 39.0 °F 31.0 °F 24.1 °F 55% 30.25 in 10.0 mi SSE 13.8 mph - N/A   Clear
1:53 AM 37.0 °F 30.4 °F 23.0 °F 57% 30.24 in 10.0 mi SSE 9.2 mph - N/A   Clear
2:53 AM 36.0 °F 29.0 °F 23.0 °F 59% 30.24 in 10.0 mi SSE 9.2 mph - N/A   Clear
3:53 AM 37.9 °F 30.5 °F 23.0 °F 55% 30.21 in 10.0 mi South 11.5 mph - N/A   Clear
4:53 AM 37.9 °F 29.2 °F 24.1 °F 57% 30.18 in 10.0 mi SSE 15.0 mph - N/A   Clear
5:53 AM 37.0 °F 29.3 °F 24.1 °F 59% 30.18 in 10.0 mi SSE 11.5 mph - N/A   Clear
6:53 AM 35.1 °F 27.4 °F 24.1 °F 64% 30.17 in 10.0 mi SSE 10.4 mph - N/A   Clear
7:53 AM 34.0 °F 25.0 °F 24.1 °F 67% 30.17 in 10.0 mi SSE 12.7 mph - N/A   Clear
8:53 AM 39.9 °F 34.5 °F 25.0 °F 55% 30.17 in 10.0 mi South 8.1 mph - N/A   Clear
9:53 AM 45.0 °F 40.6 °F 26.1 °F 48% 30.16 in 10.0 mi SSE 8.1 mph - N/A   Clear
10:53 AM 54.0 °F - 26.1 °F 34% 30.14 in 10.0 mi Calm Calm - N/A   Clear
11:53 AM 62.1 °F - 27.0 °F 26% 30.08 in 10.0 mi SSW 13.8 mph 18.4 mph N/A   Clear
12:53 PM 64.0 °F - 28.0 °F 26% 30.03 in 10.0 mi South 13.8 mph - N/A   Clear
1:53 PM 66.0 °F - 28.9 °F 25% 29.97 in 10.0 mi SSW 11.5 mph 20.7 mph N/A   Clear
2:53 PM 66.9 °F - 28.0 °F 23% 29.94 in 10.0 mi SSW 15.0 mph 21.9 mph N/A   Clear
3:53 PM 66.9 °F - 28.0 °F 23% 29.91 in 10.0 mi SSW 16.1 mph - N/A   Clear
4:53 PM 64.9 °F - 27.0 °F 24% 29.90 in 10.0 mi South 12.7 mph - N/A   Clear
5:53 PM 60.1 °F - 26.1 °F 27% 29.91 in 10.0 mi South 15.0 mph - N/A   Clear
6:53 PM 55.0 °F - 26.1 °F 33% 29.92 in 10.0 mi South 13.8 mph - N/A   Clear
7:53 PM 52.0 °F - 26.1 °F 37% 29.92 in 10.0 mi South 15.0 mph - N/A   Clear
8:53 PM 46.9 °F - 26.1 °F 44% 29.91 in 10.0 mi South 11.5 mph - N/A   Clear
9:53 PM 48.9 °F - 27.0 °F 43% 29.89 in 10.0 mi South 15.0 mph - N/A   Clear
10:53 PM 48.9 °F - 28.0 °F 44% 29.87 in 10.0 mi SSW 15.0 mph - N/A   Clear
11:53 PM 50.0 °F - 28.0 °F 43% 29.85 in 10.0 mi SSW 15.0 mph - N/A   Clear